Location: Newark
(40.8000°N, 14.5000°E)
Time: 04:41:09
(UTC+00:00)

OTV 5 (USA 277) - Pass Details

Date: 25 August 2019
Orbit: 295 x 339 km, 54.5° (Epoch: 08 September)

Event Time Altitude Azimuth Distance (km) Brightness Sun altitude
Rises 19:42:38 0° 262° (W) 1,997 ? -20.7°
Reaches altitude 10° 19:44:58 10° 284° (WNW) 1,169 ? -21.1°
Maximum altitude 19:46:48 17° 330° (NNW) 851 ? -21.4°
Enters shadow 19:48:05 13° 5° (N) 1,015 ? -21.6°
